Weather History for West Palm Beach, FL

Change the Weather History Date:

Friday, November 25, 2011

  Actual Average Record
Temperature  
Mean Temperature 75 °F 71 °F  
Max Temperature 78 °F 79 °F 88 °F (1947)
Min Temperature 72 °F 64 °F 36 °F (1917)
Degree Days  
Heating Degree Days 0 1  
Month to date heating degree days 0 4  
Since 1 July heating degree days 0 5  
Cooling Degree Days 10 7  
Month to date cooling degree days 247 211  
Year to date cooling degree days 4536 3832  
Growing Degree Days 24 (Base 50)    
Moisture  
Dew Point 57 °F    
Average Humidity 58    
Maximum Humidity 68    
Minimum Humidity 47    
Precipitation  
Precipitation T in 0.13 in 5.16 in (2000)
Month to date precipitation 1.19 4.09  
Year to date precipitation 46.85 58.29  
Snow  
Snow 0.00 in - - ()
Month to date snowfall 0.0  
Since 1 July snowfall 0.0  
Since 1 September snowfall 0.0  
Snow Depth 0.00 in    
Sea Level Pressure  
Sea Level Pressure 30.16 in    
Wind  
Wind Speed 15 mph (ENE)    
Max Wind Speed 23 mph    
Max Gust Speed 30 mph    
Visibility 10 miles    
Events      
T = Trace of Precipitation, MM = Missing Value Source: NWS Daily Summary

Daily Weather History Graph

Daily Weather History Graph

Search for Another Location

Airport:

Trip Planner

Search our weather history database for the weather conditions in past years. The results will help you decide how hot, cold, wet, or windy it might be!

Date:

Astronomy

Nov. 25, 2011 Rise Set
Actual Time 6:47 AM EST 5:27 PM EST
Civil Twilight 6:22 AM EST 5:52 PM EST
Nautical Twilight 5:53 AM EST 6:20 PM EST
Astronomical Twilight 5:25 AM EST 6:48 PM EST
Moon 7:08 AM EST (11/25) 5:58 PM EST (11/25)
Length of Visible Light 11h 30m
Length of Day
10h 40m
New Moon, 0% of the Moon is Illuminated
Nov 25
New Moon
Dec 2
First Quarter
Dec 10
Full
Dec 17
Last Quarter
Dec 24
New

Hourly Weather History & Observations

Time (EST) Temp. Dew Point Humidity Pressure Visibility Wind Dir Wind Speed Gust Speed Precip Events Conditions
12:53 AM 72.0 °F 55.9 °F 57% 30.17 in 10.0 mi ENE 9.2 mph - N/A   Scattered Clouds
1:53 AM 73.0 °F 59.0 °F 61% 30.16 in 10.0 mi ENE 17.3 mph 24.2 mph N/A   Mostly Cloudy
2:53 AM 72.0 °F 53.1 °F 51% 30.15 in 10.0 mi ENE 10.4 mph - N/A   Scattered Clouds
3:53 AM 72.0 °F 54.0 °F 53% 30.15 in 10.0 mi East 12.7 mph - N/A   Mostly Cloudy
4:53 AM 73.0 °F 55.0 °F 53% 30.16 in 10.0 mi ENE 12.7 mph - N/A   Mostly Cloudy
5:53 AM 73.0 °F 54.0 °F 51% 30.16 in 10.0 mi East 17.3 mph 21.9 mph N/A   Mostly Cloudy
6:53 AM 72.0 °F 55.0 °F 55% 30.18 in 10.0 mi East 17.3 mph - N/A   Mostly Cloudy
7:53 AM 73.0 °F 55.9 °F 55% 30.19 in 10.0 mi East 13.8 mph - N/A   Mostly Cloudy
8:53 AM 73.9 °F 57.9 °F 57% 30.20 in 10.0 mi East 12.7 mph 21.9 mph N/A   Mostly Cloudy
9:53 AM 77.0 °F 57.0 °F 50% 30.21 in 10.0 mi ENE 16.1 mph 29.9 mph 0.00 in   Mostly Cloudy
10:53 AM 77.0 °F 55.0 °F 47% 30.21 in 10.0 mi ENE 15.0 mph - N/A   Mostly Cloudy
11:53 AM 77.0 °F 55.0 °F 47% 30.19 in 10.0 mi ENE 20.7 mph 25.3 mph N/A   Mostly Cloudy
12:53 PM 75.9 °F 57.9 °F 54% 30.17 in 10.0 mi East 15.0 mph - N/A   Mostly Cloudy
1:53 PM 77.0 °F 57.0 °F 50% 30.15 in 10.0 mi ENE 16.1 mph 21.9 mph N/A   Mostly Cloudy
2:53 PM 77.0 °F 57.9 °F 52% 30.14 in 10.0 mi ENE 13.8 mph - N/A   Mostly Cloudy
3:53 PM 77.0 °F 59.0 °F 54% 30.13 in 10.0 mi East 13.8 mph 21.9 mph N/A   Mostly Cloudy
4:53 PM 75.0 °F 59.0 °F 57% 30.14 in 10.0 mi ENE 11.5 mph - N/A   Mostly Cloudy
5:53 PM 73.9 °F 55.9 °F 53% 30.13 in 10.0 mi East 11.5 mph - N/A   Mostly Cloudy
6:53 PM 73.9 °F 61.0 °F 64% 30.14 in 10.0 mi East 10.4 mph - N/A   Scattered Clouds
7:53 PM 73.9 °F 63.0 °F 68% 30.15 in 10.0 mi East 16.1 mph 21.9 mph N/A   Scattered Clouds
8:53 PM 73.9 °F 63.0 °F 68% 30.16 in 10.0 mi East 17.3 mph - N/A   Mostly Cloudy
9:53 PM 73.9 °F 55.0 °F 52% 30.17 in 10.0 mi East 18.4 mph 24.2 mph N/A   Scattered Clouds
10:53 PM 73.9 °F 57.0 °F 55% 30.17 in 10.0 mi East 19.6 mph 25.3 mph N/A   Scattered Clouds
11:53 PM 73.9 °F 60.1 °F 62% 30.16 in 10.0 mi East 13.8 mph - N/A   Scattered Clouds